Bf Caroda — V2CV5 — position and weather

sailwx.info

Track history (hours):
 
Tides and Currents Weather Stations Pressure Air Temp Water Temp Dewpoint Dewpoint Depression Visibility Wind Speed Wind Dir Waves Ship Positions

Bf Caroda

Last reported at 2014-Jul-28 18:25 UTC. Time now 2014-Jul-30 17:11 UTC.
Position N 38°56' E 000°01'.

Length 134 m; draft 7.3 m.

Type: Ship (hazmat cat A). MMSI: 304678000.

Date/timePositionNaut miles runAvg speedWind from/ knotsBaromVisibWave heightAir tempDewpointWater temp
2014-Jul-28 18:25N 38°56' E 000°01'910.0
2014-Jul-28 17:33N 38°60' W 000°09'0 0.0
2014-Jul-28 16:34N 38°60' W 000°09'0 0.0
2014-Jul-28 15:27N 38°60' W 000°09'0 0.0
2014-Jul-28 14:33N 38°60' W 000°09'0 0.0
2014-Jul-28 13:33N 38°60' W 000°09'0 0.0
2014-Jul-28 12:32N 38°60' W 000°09'0 0.0
2014-Jul-28 10:33N 38°60' W 000°09'51 1.7
2014-Jul-27 04:09N 39°45' E 000°22'1015.8
2014-Jul-27 03:29N 39°54' E 000°28'1515.5
2014-Jul-27 02:33N 40°06' E 000°39'1615.9
2014-Jul-27 01:33N 40°16' E 000°54'1616.2
2014-Jul-27 00:33N 40°27' E 001°11'1616.3
2014-Jul-26 23:33N 40°38' E 001°27'1616.3
2014-Jul-26 22:33N 40°48' E 001°43'1716.6
2014-Jul-26 21:33N 40°59' E 001°59'2416.5
2014-Jul-26 20:06N 41°15' E 002°24'5715.4
2014-Jul-26 16:22N 41°54' E 003°20'2016.1
2014-Jul-26 15:09N 42°07' E 003°40'1016.5
2014-Jul-26 14:33N 42°14' E 003°49'1615.8
2014-Jul-26 13:33N 42°25' E 004°04'1615.7
2014-Jul-26 12:33N 42°36' E 004°19'1915.6
2014-Jul-26 11:20N 42°50' E 004°38'1215.7
2014-Jul-26 10:33N 42°57' E 004°51'1615.9
2014-Jul-26 09:33N 43°09' E 005°06'1515.2
2014-Jul-26 08:33N 43°21' E 005°18'1 1.4
2014-Jul-26 07:31N 43°21' E 005°20'0 0.0
2014-Jul-26 06:31N 43°21' E 005°20'0 0.0
2014-Jul-26 05:33N 43°21' E 005°20'0 0.0
2014-Jul-26 04:33N 43°21' E 005°20'0 0.0
2014-Jul-26 03:33N 43°21' E 005°20'0 0.0
2014-Jul-26 02:32N 43°21' E 005°20'0 0.0
2014-Jul-26 01:32N 43°21' E 005°20'0 0.0
2014-Jul-26 00:31N 43°21' E 005°20'0 0.0
2014-Jul-25 23:31N 43°21' E 005°20'0 0.0
2014-Jul-25 22:33N 43°21' E 005°20'0 0.0
2014-Jul-25 21:33N 43°21' E 005°20'0 0.0
2014-Jul-25 20:33N 43°21' E 005°20'0 0.0
2014-Jul-25 19:32N 43°21' E 005°20'0 0.0
2014-Jul-25 18:32N 43°21' E 005°20'0 0.0
2014-Jul-25 17:31N 43°21' E 005°20'0 0.0
2014-Jul-25 16:31N 43°21' E 005°20'0 0.0
2014-Jul-25 15:33N 43°21' E 005°20'0 0.0
2014-Jul-25 14:33N 43°21' E 005°20'0 0.0
2014-Jul-25 13:32N 43°21' E 005°20'0 0.0
2014-Jul-25 12:32N 43°21' E 005°20'0 0.0
2014-Jul-25 11:33N 43°21' E 005°20'0 0.0
2014-Jul-25 10:33N 43°21' E 005°20'3 2.7
2014-Jul-25 09:33N 43°20' E 005°16'0 0.0
2014-Jul-25 08:33N 43°20' E 005°16'0 0.0
2014-Jul-25 07:33N 43°20' E 005°16'0 0.0
2014-Jul-25 06:33N 43°20' E 005°16'0 0.0
2014-Jul-25 05:33N 43°20' E 005°16'6 5.8
2014-Jul-25 04:33N 43°16' E 005°11'1515.0
2014-Jul-25 03:33N 43°04' E 005°23'1514.9
2014-Jul-25 02:33N 42°54' E 005°38'1616.4
2014-Jul-25 01:33N 42°45' E 005°57'1313.0
2014-Jul-25 00:33N 42°44' E 006°14'1616.2
2014-Jul-24 23:33N 42°42' E 006°36'1111.1
2014-Jul-24 22:33N 42°49' E 006°48'1716.6
2014-Jul-24 21:33N 43°01' E 007°03'1616.2
2014-Jul-24 20:33N 43°13' E 007°19'4016.5
2014-Jul-24 18:08N 43°39' E 007°59'1016.8
2014-Jul-24 17:31N 43°46' E 008°10'1616.8
2014-Jul-24 16:33N 43°57' E 008°27'1616.4
2014-Jul-24 15:33N 44°08' E 008°43'1716.5
2014-Jul-24 14:33N 44°22' E 008°57'3 3.4
2014-Jul-24 13:33N 44°24' E 008°54'0 0.0
2014-Jul-24 12:33N 44°24' E 008°54'0 0.0
2014-Jul-24 11:33N 44°24' E 008°54'0 0.0
2014-Jul-24 10:33N 44°24' E 008°54'0 0.0
2014-Jul-24 09:33N 44°24' E 008°54'0 0.0
2014-Jul-24 08:33N 44°24' E 008°54'0 0.0
2014-Jul-24 07:33N 44°24' E 008°54'0 0.0
2014-Jul-24 06:33N 44°24' E 008°54'3 3.4
2014-Jul-24 05:33N 44°22' E 008°58'5 4.7
2014-Jul-24 04:33N 44°18' E 009°01'8 8.2
2014-Jul-24 03:34N 44°12' E 009°08'1818.4
2014-Jul-24 02:33N 44°02' E 009°30'1616.3
2014-Jul-24 01:34N 44°01' E 009°52'5 5.2
2014-Jul-24 00:34N 44°06' E 009°51'0 0.0
2014-Jul-23 23:33N 44°06' E 009°51'0 0.0
2014-Jul-23 22:33N 44°06' E 009°51'0 0.0
2014-Jul-23 21:33N 44°06' E 009°51'0 0.0
2014-Jul-23 20:34N 44°06' E 009°51'0 0.0
2014-Jul-23 19:34N 44°06' E 009°51'0 0.0
2014-Jul-23 18:33N 44°06' E 009°51'0 0.0
2014-Jul-23 17:33N 44°06' E 009°51'0 0.0
2014-Jul-23 16:33N 44°06' E 009°51'0 0.0
2014-Jul-23 15:33N 44°06' E 009°51'0 0.0
2014-Jul-23 14:33N 44°06' E 009°51'0 0.0
2014-Jul-23 13:33N 44°06' E 009°51'0 0.0
2014-Jul-23 12:34N 44°06' E 009°51'3 3.2
2014-Jul-23 11:31N 44°03' E 009°52'0 0.0
2014-Jul-23 10:31N 44°03' E 009°52'0 0.1
2014-Jul-23 09:33N 44°03' E 009°53'0 0.0
2014-Jul-23 08:33N 44°03' E 009°53'0 0.0
2014-Jul-23 07:32N 44°03' E 009°53'0 0.0
2014-Jul-23 06:32N 44°03' E 009°53'0 0.0
2014-Jul-23 05:32N 44°03' E 009°53'0 0.0
2014-Jul-23 04:28N 44°03' E 009°53'0 0.0
2014-Jul-23 03:31N 44°03' E 009°53'0 0.0
2014-Jul-23 02:33N 44°03' E 009°53'0 0.0
2014-Jul-23 01:33N 44°03' E 009°53'0 0.0
2014-Jul-23 00:33N 44°03' E 009°53'0 0.0
2014-Jul-22 23:33N 44°03' E 009°53'0 0.0
2014-Jul-22 22:33N 44°03' E 009°53'3 3.3
2014-Jul-22 21:33N 44°01' E 009°56'1211.6
2014-Jul-22 20:33N 43°50' E 009°59'1716.8
2014-Jul-22 19:33N 43°38' E 009°42'1717.0
2014-Jul-22 18:33N 43°26' E 009°26'1716.8
2014-Jul-22 17:33N 43°14' E 009°10'1716.9
2014-Jul-22 16:34N 43°02' E 008°53'1717.2
2014-Jul-22 15:33N 42°50' E 008°37'1917.3
2014-Jul-22 14:27N 42°36' E 008°18'1517.0
2014-Jul-22 13:33N 42°26' E 008°03'1716.7
2014-Jul-22 12:33N 42°14' E 007°47'26116.3
2014-Jul-21 20:33N 39°10' E 003°42'618.5
2014-Jul-21 20:13N 39°06' E 003°36'1116.3
2014-Jul-21 19:33N 38°58' E 003°26'1717.1
2014-Jul-21 18:33N 38°47' E 003°10'3417.1
2014-Jul-21 16:33N 38°23' E 002°38'2317.0
2014-Jul-21 15:10N 38°07' E 002°17'  
Track history (hours):
 
Tides and Currents Weather Stations Pressure Air Temp Water Temp Dewpoint Dewpoint Depression Visibility Wind Speed Wind Dir Waves Ship Positions

Bf Caroda

Last reported at 2014-Jul-28 18:25 UTC. Time now 2014-Jul-30 17:11 UTC.
Position N 38°56' E 000°01'.

Length 134 m; draft 7.3 m.

Type: Ship (hazmat cat A). MMSI: 304678000.

Date/timePositionNaut miles runAvg speedWind from/ knotsBaromVisibWave heightAir tempDewpointWater temp
2014-Jul-28 18:25N 38°56' E 000°01'910.0
2014-Jul-28 17:33N 38°60' W 000°09'0 0.0
2014-Jul-28 16:34N 38°60' W 000°09'0 0.0
2014-Jul-28 15:27N 38°60' W 000°09'0 0.0
2014-Jul-28 14:33N 38°60' W 000°09'0 0.0
2014-Jul-28 13:33N 38°60' W 000°09'0 0.0
2014-Jul-28 12:32N 38°60' W 000°09'0 0.0
2014-Jul-28 10:33N 38°60' W 000°09'51 1.7
2014-Jul-27 04:09N 39°45' E 000°22'1015.8
2014-Jul-27 03:29N 39°54' E 000°28'1515.5
2014-Jul-27 02:33N 40°06' E 000°39'1615.9
2014-Jul-27 01:33N 40°16' E 000°54'1616.2
2014-Jul-27 00:33N 40°27' E 001°11'1616.3
2014-Jul-26 23:33N 40°38' E 001°27'1616.3
2014-Jul-26 22:33N 40°48' E 001°43'1716.6
2014-Jul-26 21:33N 40°59' E 001°59'2416.5
2014-Jul-26 20:06N 41°15' E 002°24'5715.4
2014-Jul-26 16:22N 41°54' E 003°20'2016.1
2014-Jul-26 15:09N 42°07' E 003°40'1016.5
2014-Jul-26 14:33N 42°14' E 003°49'1615.8
2014-Jul-26 13:33N 42°25' E 004°04'1615.7
2014-Jul-26 12:33N 42°36' E 004°19'1915.6
2014-Jul-26 11:20N 42°50' E 004°38'1215.7
2014-Jul-26 10:33N 42°57' E 004°51'1615.9
2014-Jul-26 09:33N 43°09' E 005°06'1515.2
2014-Jul-26 08:33N 43°21' E 005°18'1 1.4
2014-Jul-26 07:31N 43°21' E 005°20'0 0.0
2014-Jul-26 06:31N 43°21' E 005°20'0 0.0
2014-Jul-26 05:33N 43°21' E 005°20'0 0.0
2014-Jul-26 04:33N 43°21' E 005°20'0 0.0
2014-Jul-26 03:33N 43°21' E 005°20'0 0.0
2014-Jul-26 02:32N 43°21' E 005°20'0 0.0
2014-Jul-26 01:32N 43°21' E 005°20'0 0.0
2014-Jul-26 00:31N 43°21' E 005°20'0 0.0
2014-Jul-25 23:31N 43°21' E 005°20'0 0.0
2014-Jul-25 22:33N 43°21' E 005°20'0 0.0
2014-Jul-25 21:33N 43°21' E 005°20'0 0.0
2014-Jul-25 20:33N 43°21' E 005°20'0 0.0
2014-Jul-25 19:32N 43°21' E 005°20'0 0.0
2014-Jul-25 18:32N 43°21' E 005°20'0 0.0
2014-Jul-25 17:31N 43°21' E 005°20'0 0.0
2014-Jul-25 16:31N 43°21' E 005°20'0 0.0
2014-Jul-25 15:33N 43°21' E 005°20'0 0.0
2014-Jul-25 14:33N 43°21' E 005°20'0 0.0
2014-Jul-25 13:32N 43°21' E 005°20'0 0.0
2014-Jul-25 12:32N 43°21' E 005°20'0 0.0
2014-Jul-25 11:33N 43°21' E 005°20'0 0.0
2014-Jul-25 10:33N 43°21' E 005°20'3 2.7
2014-Jul-25 09:33N 43°20' E 005°16'0 0.0
2014-Jul-25 08:33N 43°20' E 005°16'0 0.0
2014-Jul-25 07:33N 43°20' E 005°16'0 0.0
2014-Jul-25 06:33N 43°20' E 005°16'0 0.0
2014-Jul-25 05:33N 43°20' E 005°16'6 5.8
2014-Jul-25 04:33N 43°16' E 005°11'1515.0
2014-Jul-25 03:33N 43°04' E 005°23'1514.9
2014-Jul-25 02:33N 42°54' E 005°38'1616.4
2014-Jul-25 01:33N 42°45' E 005°57'1313.0
2014-Jul-25 00:33N 42°44' E 006°14'1616.2
2014-Jul-24 23:33N 42°42' E 006°36'1111.1
2014-Jul-24 22:33N 42°49' E 006°48'1716.6
2014-Jul-24 21:33N 43°01' E 007°03'1616.2
2014-Jul-24 20:33N 43°13' E 007°19'4016.5
2014-Jul-24 18:08N 43°39' E 007°59'1016.8
2014-Jul-24 17:31N 43°46' E 008°10'1616.8
2014-Jul-24 16:33N 43°57' E 008°27'1616.4
2014-Jul-24 15:33N 44°08' E 008°43'1716.5
2014-Jul-24 14:33N 44°22' E 008°57'3 3.4
2014-Jul-24 13:33N 44°24' E 008°54'0 0.0
2014-Jul-24 12:33N 44°24' E 008°54'0 0.0
2014-Jul-24 11:33N 44°24' E 008°54'0 0.0
2014-Jul-24 10:33N 44°24' E 008°54'0 0.0
2014-Jul-24 09:33N 44°24' E 008°54'0 0.0
2014-Jul-24 08:33N 44°24' E 008°54'0 0.0
2014-Jul-24 07:33N 44°24' E 008°54'0 0.0
2014-Jul-24 06:33N 44°24' E 008°54'3 3.4
2014-Jul-24 05:33N 44°22' E 008°58'5 4.7
2014-Jul-24 04:33N 44°18' E 009°01'8 8.2
2014-Jul-24 03:34N 44°12' E 009°08'1818.4
2014-Jul-24 02:33N 44°02' E 009°30'1616.3
2014-Jul-24 01:34N 44°01' E 009°52'5 5.2
2014-Jul-24 00:34N 44°06' E 009°51'0 0.0
2014-Jul-23 23:33N 44°06' E 009°51'0 0.0
2014-Jul-23 22:33N 44°06' E 009°51'0 0.0
2014-Jul-23 21:33N 44°06' E 009°51'0 0.0
2014-Jul-23 20:34N 44°06' E 009°51'0 0.0
2014-Jul-23 19:34N 44°06' E 009°51'0 0.0
2014-Jul-23 18:33N 44°06' E 009°51'0 0.0
2014-Jul-23 17:33N 44°06' E 009°51'0 0.0
2014-Jul-23 16:33N 44°06' E 009°51'0 0.0
2014-Jul-23 15:33N 44°06' E 009°51'0 0.0
2014-Jul-23 14:33N 44°06' E 009°51'0 0.0
2014-Jul-23 13:33N 44°06' E 009°51'0 0.0
2014-Jul-23 12:34N 44°06' E 009°51'3 3.2
2014-Jul-23 11:31N 44°03' E 009°52'0 0.0
2014-Jul-23 10:31N 44°03' E 009°52'0 0.1
2014-Jul-23 09:33N 44°03' E 009°53'0 0.0
2014-Jul-23 08:33N 44°03' E 009°53'0 0.0
2014-Jul-23 07:32N 44°03' E 009°53'0 0.0
2014-Jul-23 06:32N 44°03' E 009°53'0 0.0
2014-Jul-23 05:32N 44°03' E 009°53'0 0.0
2014-Jul-23 04:28N 44°03' E 009°53'0 0.0
2014-Jul-23 03:31N 44°03' E 009°53'0 0.0
2014-Jul-23 02:33N 44°03' E 009°53'0 0.0
2014-Jul-23 01:33N 44°03' E 009°53'0 0.0
2014-Jul-23 00:33N 44°03' E 009°53'0 0.0
2014-Jul-22 23:33N 44°03' E 009°53'0 0.0
2014-Jul-22 22:33N 44°03' E 009°53'3 3.3
2014-Jul-22 21:33N 44°01' E 009°56'1211.6
2014-Jul-22 20:33N 43°50' E 009°59'1716.8
2014-Jul-22 19:33N 43°38' E 009°42'1717.0
2014-Jul-22 18:33N 43°26' E 009°26'1716.8
2014-Jul-22 17:33N 43°14' E 009°10'1716.9
2014-Jul-22 16:34N 43°02' E 008°53'1717.2
2014-Jul-22 15:33N 42°50' E 008°37'1917.3
2014-Jul-22 14:27N 42°36' E 008°18'1517.0
2014-Jul-22 13:33N 42°26' E 008°03'1716.7
2014-Jul-22 12:33N 42°14' E 007°47'26116.3
2014-Jul-21 20:33N 39°10' E 003°42'618.5
2014-Jul-21 20:13N 39°06' E 003°36'1116.3
2014-Jul-21 19:33N 38°58' E 003°26'1717.1
2014-Jul-21 18:33N 38°47' E 003°10'3417.1
2014-Jul-21 16:33N 38°23' E 002°38'2317.0
2014-Jul-21 15:10N 38°07' E 002°17'  

Dump ship's entire track history